Regional Weather Roundup
Issued by NWS

Home | Current Version | Previous Version | Graphics & Text | Print | Product List | Glossary Off
Versions: 1 2 3 4 5 6 7 8 9 10 11 12 13 14 15 16 17 18 19 20 21 22 23 24 25 26 27 28 29 30 31 32 33 34 35 36 37 38 39 40 41 42 43 44 45 46 47 48 49 50

000
ASUS45 KBOU 191407
RWRCO

WEATHER ROUNDUP FOR COLORADO
NATIONAL WEATHER SERVICE DENVER/BOULDER CO
800 AM MDT FRI SEP 19 2014

NOTE: "FAIR" INDICATES FEW OR NO CLOUDS BELOW 12000 FEET WITH NO
SIGNIFICANT WEATHER AND/OR OBSTRUCTIONS TO VISIBILITY.

COZ001>005-013-030-031-191500-
...NORTHWEST COLORADO...

CITY           SKY/WX    TMP DP  RH WIND       PRES   REMARKS
CRAIG          SUNNY     52  42  69 CALM      30.16R
HAYDEN         SUNNY     52  39  62 E5        30.18R
MEEKER         SUNNY     49  41  74 CALM      30.17R
MOUNT WERNER   NOT AVBL
STEAMBOAT SPGS SUNNY     47  41  81 CALM      30.19R
WALDEN         MOSUNNY   50  36  57 N10       30.25R
$$

COZ006>008-011-191500-
...WEST CENTRAL VALLEYS...

CITY           SKY/WX    TMP DP  RH WIND       PRES   REMARKS
GRAND JUNCTION MOSUNNY   60  43  53 SE7       30.02R
MONTROSE       SUNNY     57  44  62 S7        30.11R
EAGLE          NOT AVBL
RIFLE          PTSUNNY   53  44  71 CALM      30.11R
DELTA          SUNNY     62  43  49 E6        30.08R
NUCLA          PTSUNNY   59  41  51 E3        30.15R
$$

COZ017>023-064>068-191500-
...SOUTHWEST COLORADO...

CITY           SKY/WX    TMP DP  RH WIND       PRES   REMARKS
DURANGO        SUNNY     53  42  66 CALM      30.19R
CORTEZ         SUNNY     51  44  77 CALM      30.13R
PAGOSA SPRINGS SUNNY     53  42  66 CALM      30.26R
TELLURIDE      NOT AVBL
WOLF CREEK PAS SUNNY     43  37  81 S6        30.49R
$$

COZ009-010-012-014-032>034-037-058>063-191500-
...CENTRAL COLORADO...

CITY           SKY/WX    TMP DP  RH WIND       PRES   REMARKS
ASPEN          SUNNY     50  38  63 S5        30.23R
BUENA VISTA    SUNNY     50  32  49 CALM      30.26R
COPPER MTN     NOT AVBL
BERTHOUD PASS  FAIR      41  39  93 MISG      30.55R
COTTONWOOD PAS SUNNY     59  30  33 W5        30.36R
GUNNISON       SUNNY     41  32  70 CALM      30.30R
KREMMLING      PTSUNNY   46  36  66 CALM      30.25R
LEADVILLE      SUNNY     41  29  62 CALM      30.36R
SALIDA         SUNNY     54  33  45 NW6       30.31R
SUNLIGHT       SUNNY     52  36  54 CALM      30.44R
WILKERSON PASS NOT AVBL
$$

COZ069>075-191500-
...SAN LUIS VALLEY/SANGRE DE CRISTO MOUNTAINS...

CITY           SKY/WX    TMP DP  RH WIND       PRES   REMARKS
ALAMOSA        MOSUNNY   46  34  62 S3        30.23R
LA VETA PASS   NOT AVBL
SAGUACHE       NOT AVBL
$$

COZ035-036-038>040-191500-
...NORTHERN COLORADO FRONT RANGE...

CITY           SKY/WX    TMP DP  RH WIND       PRES   REMARKS
DENVER INTL AP MOSUNNY   68  36  30 SW13      29.99R
DMNS CITY PARK   N/A     66  38  35 S5        30.00R
AURORA         MOSUNNY   67  36  32 S9        30.02R
FRONT RANGE AP MOSUNNY   70  39  32 S13       30.01R
ERIE MUNI ARPT SUNNY     58  43  56 CALM      29.99R
BOULDER MUN AP SUNNY     63  46  55 CALM      29.99R
CENTENNIAL     MOSUNNY   64  37  36 SE7       30.03R
BROOMFIELD     MOSUNNY   68  37  32 W3        30.02R
FORT COLLINS   MOSUNNY   61  45  55 NE9       30.00R
LONGMONT       MOSUNNY   60  47  61 CALM      30.00R
$$

COZ041-046-047-076>085-087-088-191500-
...PIKES PEAK/PALMER DIVIDE AND SOUTHERN FOOTHILLS...

CITY           SKY/WX    TMP DP  RH WIND       PRES   REMARKS
COLO. SPRINGS  MOSUNNY   60  46  59 N5        30.09R
A. F. ACADEMY  SUNNY     52  41  64 N10       30.10S
ELLICOTT       NOT AVBL
FALCON         SUNNY     61  45  56 W6        30.13R
FORT CARSON    SUNNY     59  37  43 NW7       30.06R
LIMON          SUNNY     56  49  77 SE7       30.03R
MONUMENT HILL  SUNNY     61  37  41 S9        30.11S
TRINIDAD       SUNNY     64  52  64 SW14      30.06R
$$

COZ042>045-048>051-090-091-191500-
...NORTHEAST COLORADO...

CITY           SKY/WX    TMP DP  RH WIND       PRES   REMARKS
GREELEY ARPT   MOSUNNY   55  43  62 N5        29.99R
AKRON          SUNNY     70  44  39 SW13G23   29.96R
BURLINGTON     SUNNY     67  58  72 SW13G21   29.98R
WRAY           SUNNY     66  57  73 SW9       29.93R
STERLING       SUNNY     64  57  77 W6        29.93R
HOLYOKE        SUNNY     64  55  72 SW7       29.91R
FORT MORGAN    SUNNY     63  45  52 SW6       29.96R
$$

COZ086-089-092>099-191500-
...SOUTHEAST COLORADO...

CITY           SKY/WX    TMP DP  RH WIND       PRES   REMARKS
PUEBLO         SUNNY     55  48  77 SW5       30.00R
LA JUNTA       SUNNY     60  55  83 CALM      29.98S
LAMAR          SUNNY     67  60  78 S13       29.95S
SPRINGFIELD      N/A     63  60  90 SW14G22   30.03R
$$


USA.gov is the U.S. government's official web portal to all federal, state and local government web resources and services.